Location: Newark
(44.4156°N, 12.1972°E)
Time: 09:54:51
(UTC+00:00)

STARLINK-1071 - Pass Details

Date: 31 January 2020
Orbit: 345 x 354 km, 53.0° (Epoch: 22 February)

Event Time Altitude Azimuth Distance (km) Brightness Sun altitude
Rises 16:58:39 0° 306° (NW) 2,188 7.3 -7.6°
Reaches altitude 10° 17:00:44 10° 313° (NW) 1,340 6.0 -7.9°
Maximum altitude 17:03:37 45° 28° (NNE) 505 3.1 -8.4°
Enters shadow 17:06:28 10° 103° (ESE) 1,322 5.0 -8.9°
